This is the latest recevied weather packets stored in our database for station/object K6POO-1. If no packets are shown the sender has not sent any weather packets the latest 10 day(s).
| Time | Temp. | Humidity | Pressure | Rain* | Wind** | Luminosity | Snow |
|---|---|---|---|---|---|---|---|
| 1788549212 | 20.56° C | 54% | 1015 hPa | 0 mm | - | 914 W/m² | - |
| 1788548908 | 20.56° C | 55% | 1015 hPa | 0 mm | - | 920 W/m² | - |
| 1788548604 | 20° C | 56% | 1015.2 hPa | 0 mm | - | 914 W/m² | - |
| 1788548300 | 21.11° C | 53% | 1015.1 hPa | 0 mm | - | 922 W/m² | - |
| 1788547995 | 20.56° C | 55% | 1015.2 hPa | 0 mm | - | 918 W/m² | - |
| 1788547694 | 20.56° C | 54% | 1015 hPa | 0 mm | - | 911 W/m² | - |
| 1788547390 | 20.56° C | 57% | 1014.9 hPa | 0 mm | - | 910 W/m² | - |
| 1788547086 | 20.56° C | 55% | 1015 hPa | 0 mm | - | 904 W/m² | - |
| 1788546786 | 20.56° C | 53% | 1015.1 hPa | 0 mm | - | 902 W/m² | - |
| 1788546481 | 20° C | 56% | 1015.1 hPa | 0 mm | - | 882 W/m² | - |
| 1788546176 | 20.56° C | 57% | 1015.2 hPa | 0 mm | - | 897 W/m² | - |
| 1788545871 | 20.56° C | 54% | 1014.8 hPa | 0 mm | - | 864 W/m² | - |
| 1788545571 | 20.56° C | 55% | 1014.9 hPa | 0 mm | - | 873 W/m² | - |
| 1788545267 | 20° C | 56% | 1014.8 hPa | 0 mm | - | 854 W/m² | - |
| 1788544962 | 20° C | 56% | 1014.9 hPa | 0 mm | - | 843 W/m² | - |
| 1788544661 | 20° C | 54% | 1014.8 hPa | 0 mm | - | 830 W/m² | - |
| 1788544359 | 20° C | 55% | 1014.9 hPa | 0 mm | - | 815 W/m² | - |
| 1788544054 | 19.44° C | 56% | 1014.9 hPa | 0 mm | - | 792 W/m² | - |
| 1788543750 | 19.44° C | 55% | 1014.8 hPa | 0 mm | - | 765 W/m² | - |
| 1788543446 | 19.44° C | 58% | 1014.8 hPa | 0 mm | - | 731 W/m² | - |
| 1788543140 | 19.44° C | 58% | 1014.9 hPa | 0 mm | - | 695 W/m² | - |
| 1788542837 | 20° C | 57% | 1014.8 hPa | 0 mm | - | 666 W/m² | - |
| 1788542535 | 19.44° C | 55% | 1014.7 hPa | 0 mm | - | 641 W/m² | - |
| 1788542231 | 20° C | 58% | 1014.7 hPa | 0 mm | - | 620 W/m² | - |
| 1788541926 | 19.44° C | 57% | 1014.9 hPa | 0 mm | - | 603 W/m² | - |
* Rain latest hour (hover to see other rain measurements)
** Current wind speed in m/s (hover to see current wind gust speed)